Wind_Speed
47 48 45 43 47 50 52 52 51 49 48 50 48 49 47 40 36 34 32 33 35 36 36 35 36 37 36 35 34 33 31 30 31 34 37 39 39 39 38 38 40 41 41 42
49 50 46 46 47 48 51 52 51 49 47 50 51 50 48 41 38 38 37 36 36 36 37 36 36 37 38 37 35 33 32 31 31 32 35 38 40 42 42 43 44 44 45 46
48 49 49 48 45 45 47 49 50 50 49 48 51 53 51 44 42 43 43 43 43 42 42 41 40 40 40 39 37 34 31 32 34 35 36 38 41 43 45 45 46 47 49 50
44 45 46 45 44 45 47 48 50 52 53 54 52 55 56 55 52 51 52 52 51 50 48 47 45 43 42 43 43 42 42 40 40 41 41 42 44 45 46 47 48 48 49 50
44 45 45 44 43 45 48 48 48 51 54 56 55 54 57 59 58 58 59 59 56 54 51 49 48 49 50 50 50 50 50 49 47 45 45 45 46 48 50 50 50 50 51 51
46 47 48 48 47 46 48 50 52 53 55 57 57 56 59 59 59 60 60 59 57 55 53 50 50 53 56 57 57 56 55 55 54 52 50 50 50 51 52 52 53 55 55 55
51 51 52 53 54 53 53 54 57 60 60 61 61 63 64 63 61 60 59 59 61 62 62 60 59 60 61 60 59 58 57 56 55 55 54 54 55 56 57 57 58 59 60 60
58 59 59 59 59 60 60 59 58 60 64 66 66 69 68 67 65 63 64 65 67 68 68 68 68 67 65 64 61 58 55 54 53 54 56 58 60 62 63 64 64 64 65 66
62 66 65 64 64 63 62 60 58 58 62 67 71 73 72 69 66 66 67 68 69 69 71 72 71 69 67 65 64 62 58 56 56 58 59 61 63 65 67 69 70 69 70 70
62 66 67 63 62 61 59 58 58 59 64 67 69 70 70 68 67 66 65 65 65 65 67 69 69 69 68 67 67 66 63 62 62 62 62 62 62 64 67 70 72 72 72 72
61 63 65 65 62 58 59 61 61 63 65 67 67 67 67 67 67 65 64 64 64 64 65 66 67 68 67 67 67 69 68 66 65 64 64 64 64 65 68 70 71 72 72 72
60 61 64 65 64 63 63 61 61 63 64 63 63 65 62 64 65 65 66 66 67 67 67 68 68 69 69 67 68 69 70 70 68 67 66 66 68 69 71 72 73 74 73 73
59 61 62 63 64 65 64 63 63 64 66 65 63 63 63 64 64 66 66 67 68 68 68 69 70 71 72 71 71 72 73 74 74 73 73 72 73 74 76 77 77 77 77 76
58 60 61 62 61 64 66 66 65 66 69 70 70 69 68 69 68 67 65 65 65 66 67 69 72 75 76 77 77 78 79 79 80 80 80 79 78 78 80 83 83 83 82 81
58 61 62 63 62 62 64 66 67 70 73 76 76 76 74 72 72 71 69 68 68 69 70 72 75 79 82 84 85 86 87 87 87 86 84 83 82 82 82 85 88 90 90 88
60 63 65 67 66 69 73 73 73 75 77 79 81 82 80 80 77 75 74 74 75 76 77 78 79 81 85 88 90 91 92 92 92 91 89 88 87 86 86 87 88 91 93 94
64 67 71 75 75 78 82 79 78 79 80 82 85 84 84 83 82 81 80 80 81 81 81 82 83 84 86 89 92 94 94 94 95 95 95 95 95 94 93 93 92 92 93 95
71 74 79 83 84 88 88 84 83 83 83 83 83 83 83 83 82 81 80 80 81 81 82 83 85 86 87 90 93 95 96 97 97 98 99 100 101 101 100 99 99 98 97 96
76 78 81 83 85 89 88 84 78 77 77 75 73 73 73 73 73 71 70 73 74 75 78 80 82 84 85 87 90 92 94 96 97 98 99 100 101 102 103 104 104 104 103 101
78 77 76 77 75 75 74 70 66 62 63 61 61 62 64 66 67 65 65 68 69 71 73 76 78 79 81 83 86 88 90 91 93 95 96 98 99 100 102 103 105 106 107 107
71 70 69 67 65 64 61 57 55 54 54 54 56 57 59 61 62 62 63 65 67 69 71 74 75 77 79 81 84 86 87 89 91 93 94 95 97 98 98 99 100 102 105 106
60 59 58 56 55 55 53 51 50 50 51 53 55 56 59 60 61 62 64 65 67 69 71 74 76 78 80 83 86 87 88 90 91 93 93 94 95 95 96 97 97 98 100 101
52 51 52 52 49 46 46 47 48 51 53 53 55 56 59 61 62 64 66 67 68 70 72 74 77 79 79 81 84 86 86 88 89 90 90 91 92 92 93 95 96 98 99 100
44 45 48 48 43 43 46 48 50 52 54 56 57 58 60 61 63 65 66 66 66 67 69 72 74 76 76 77 79 81 82 82 82 82 82 82 83 84 85 87 89 92 95 97
39 43 45 45 43 47 47 49 51 53 54 56 57 59 60 62 63 63 62 62 64 65 67 70 72 72 72 71 71 72 72 72 71 70 69 69 70 70 71 72 75 79 83 88
37 43 46 47 46 51 51 50 52 53 54 55 57 58 59 59 58 58 58 59 61 64 66 67 67 65 63 62 61 62 62 62 63 63 63 63 61 59 59 58 59 62 66 70
Wind_Direction
278 279 282 283 283 286 288 288 291 294 293 290 289 289 290 290 288 285 281 279 280 281 281 278 276 275 276 279 279 275 271 269 268 267 266 265 264 264 264 266 266 265 263 261
275 276 278 277 279 282 283 285 287 289 290 290 289 287 287 289 289 285 280 277 278 279 278 276 275 274 275 277 278 275 272 270 267 264 263 263 263 263 265 265 265 266 264 262
268 272 274 275 276 277 278 281 282 283 284 284 286 288 288 289 286 284 282 280 279 277 277 278 277 276 275 274 273 270 268 270 271 269 266 263 262 262 263 264 263 262 261 261
267 269 272 274 275 275 276 276 279 282 282 282 283 287 290 292 291 289 287 285 285 283 282 281 281 279 275 273 272 272 272 271 272 274 274 271 268 265 263 262 261 260 260 260
273 274 275 275 276 277 279 280 279 279 280 280 282 286 288 291 293 293 292 292 292 291 289 287 283 281 278 276 274 273 274 276 276 275 274 274 274 273 271 268 265 263 261 259
276 276 276 277 277 279 280 280 279 278 278 279 281 283 284 288 291 292 294 294 292 290 288 283 279 278 280 280 277 275 274 275 276 275 273 272 271 270 269 268 266 265 263 262
276 276 278 280 282 282 282 282 282 281 280 278 277 277 278 282 285 288 289 287 285 284 284 282 279 278 280 281 279 277 276 274 272 269 268 268 267 264 262 262 261 262 262 262
276 277 279 281 282 283 284 283 282 282 283 281 278 275 276 279 282 282 282 281 280 280 280 279 279 280 281 280 279 277 274 270 264 260 260 262 262 261 260 258 257 257 257 259
277 277 279 281 282 283 283 283 282 278 277 278 278 278 278 278 279 280 280 281 280 279 278 278 278 277 277 276 275 273 269 264 259 257 259 260 260 260 259 259 257 256 255 255
282 283 283 283 283 283 283 283 281 277 277 278 280 280 281 281 281 281 281 280 280 279 277 275 274 273 273 271 269 268 265 261 258 257 256 256 256 257 257 258 259 258 257 256
285 284 285 284 284 283 279 277 277 277 277 279 280 281 282 280 280 280 279 279 280 280 278 277 275 274 272 269 267 265 263 260 258 256 254 252 251 252 254 255 257 258 258 257
284 283 283 284 285 282 280 280 280 279 279 277 277 278 279 279 280 279 278 278 278 277 277 277 276 274 271 268 265 262 261 260 259 257 256 254 252 251 251 252 253 254 255 255
282 281 282 282 283 282 281 281 280 279 278 277 276 277 277 277 277 278 278 277 276 275 273 272 271 269 268 266 265 264 263 262 262 262 262 262 259 256 254 253 253 253 252 251
277 276 277 279 281 281 282 281 280 279 279 279 278 278 278 279 278 278 277 276 275 273 271 269 268 267 267 267 268 268 268 267 268 268 268 266 264 261 258 256 255 254 253 252
276 276 278 278 278 278 277 276 278 279 280 279 280 280 279 277 276 276 275 273 272 271 271 269 268 268 268 269 270 271 272 272 272 271 270 268 267 265 262 259 257 255 254 253
276 278 280 279 281 279 276 277 280 279 278 278 278 278 277 275 275 274 273 273 273 273 274 273 272 270 270 271 271 271 272 272 272 271 271 270 269 268 266 264 260 257 255 253
278 280 281 282 281 279 278 281 278 275 274 274 275 276 275 275 274 274 274 274 275 275 275 275 274 273 272 272 273 273 272 271 271 270 269 269 269 269 267 265 263 259 256 255
281 282 283 283 283 279 282 281 278 275 274 273 273 274 275 276 276 277 277 277 276 276 276 275 275 275 274 274 274 274 274 273 272 271 270 269 268 267 266 265 263 261 259 256
283 283 283 282 282 282 281 282 281 280 278 277 277 277 278 278 278 278 280 280 279 279 279 278 278 278 277 277 276 276 276 276 276 275 274 272 271 269 267 265 263 262 260 258
283 282 281 281 281 282 285 285 284 283 281 280 279 279 279 280 280 281 281 281 281 281 281 280 280 280 280 280 279 278 278 278 277 276 275 274 273 272 269 267 264 262 260 258
284 284 284 284 284 284 286 287 286 286 285 284 283 283 283 284 286 286 284 284 283 284 284 284 284 284 284 283 282 282 281 280 279 278 277 275 274 273 271 269 267 264 262 260
285 286 285 282 281 285 288 288 287 286 285 285 286 286 287 287 288 288 287 287 288 288 288 288 288 288 288 288 287 287 286 284 282 281 279 277 275 273 272 270 268 267 265 262
284 284 281 280 283 286 286 286 286 286 286 286 286 286 287 287 287 288 288 289 289 290 290 290 291 291 292 292 291 290 289 287 285 284 282 280 278 275 272 269 267 265 265 263
282 281 281 282 284 284 284 286 287 287 287 287 286 286 286 287 288 289 290 290 290 291 292 293 294 295 295 294 293 292 291 290 289 287 285 283 280 277 274 271 268 265 263 262
281 279 279 281 285 284 284 287 287 287 287 287 286 286 286 287 289 290 290 290 291 293 295 297 298 298 298 297 297 296 295 294 293 292 290 288 285 283 279 276 272 268 265 263
278 279 282 284 286 287 288 287 287 288 288 288 287 287 287 288 289 290 290 291 293 295 298 299 300 301 301 301 301 300 299 300 299 298 296 292 288 285 283 281 278 274 270 265
Height
5812 5811 5811 5810 5806 5804 5800 5797 5794 5795 5795 5791 5790 5786 5786 5790 5791 5790 5788 5786 5784 5783 5782 5781 5778 5776 5775 5774 5774 5774 5774 5773 5772 5771 5770 5770 5771 5772 5772 5772 5772 5771 5771 5771
5803 5801 5801 5798 5796 5794 5791 5787 5785 5783 5783 5778 5776 5775 5776 5779 5780 5779 5778 5776 5775 5774 5773 5771 5770 5768 5767 5766 5766 5766 5765 5764 5762 5761 5760 5760 5760 5761 5761 5760 5760 5760 5761 5760
5791 5791 5789 5787 5784 5781 5780 5778 5775 5772 5769 5768 5765 5762 5761 5768 5768 5766 5765 5765 5764 5764 5763 5763 5762 5760 5758 5757 5756 5755 5754 5755 5754 5752 5750 5749 5748 5748 5748 5747 5746 5745 5745 5746
5779 5779 5777 5775 5773 5770 5768 5767 5765 5762 5758 5755 5756 5751 5752 5751 5752 5751 5750 5749 5749 5750 5750 5751 5752 5751 5750 5748 5747 5745 5743 5743 5743 5742 5742 5740 5738 5736 5734 5733 5732 5731 5729 5729
5766 5766 5764 5763 5762 5759 5757 5756 5754 5752 5748 5746 5745 5745 5743 5738 5738 5736 5734 5734 5734 5734 5733 5734 5736 5737 5738 5738 5736 5735 5733 5731 5730 5729 5729 5728 5727 5726 5725 5723 5721 5719 5717 5715
5753 5752 5751 5750 5749 5747 5745 5744 5741 5739 5738 5738 5738 5736 5733 5728 5727 5725 5723 5723 5722 5721 5720 5720 5719 5719 5720 5721 5722 5723 5722 5720 5718 5716 5715 5714 5712 5712 5712 5711 5710 5708 5706 5704
5739 5739 5738 5738 5736 5735 5733 5731 5726 5724 5724 5727 5726 5725 5725 5719 5719 5718 5715 5713 5710 5709 5709 5707 5705 5703 5701 5701 5702 5703 5704 5704 5703 5701 5700 5699 5698 5696 5696 5695 5695 5695 5694 5692
5725 5726 5726 5725 5723 5721 5718 5717 5714 5710 5708 5707 5707 5709 5713 5708 5707 5704 5701 5697 5695 5694 5692 5690 5687 5685 5684 5683 5682 5683 5683 5684 5684 5683 5683 5682 5681 5680 5678 5678 5677 5677 5677 5676
5710 5711 5712 5709 5707 5706 5702 5701 5699 5693 5688 5686 5688 5692 5694 5691 5690 5686 5682 5679 5675 5673 5672 5670 5668 5666 5664 5664 5663 5664 5664 5664 5664 5664 5664 5663 5662 5661 5660 5658 5658 5657 5657 5657
5691 5690 5694 5692 5690 5688 5685 5682 5679 5674 5669 5665 5666 5670 5676 5673 5669 5668 5665 5662 5657 5654 5652 5650 5648 5646 5645 5644 5644 5643 5644 5644 5644 5643 5642 5642 5641 5641 5640 5639 5638 5638 5638 5639
5673 5669 5673 5673 5675 5674 5669 5666 5663 5657 5652 5647 5643 5649 5655 5653 5650 5648 5646 5643 5640 5637 5633 5631 5628 5627 5625 5624 5624 5624 5623 5623 5623 5623 5622 5621 5620 5620 5620 5620 5619 5619 5619 5620
5659 5652 5651 5656 5657 5654 5651 5649 5647 5641 5636 5631 5625 5628 5632 5633 5631 5629 5626 5624 5621 5618 5615 5611 5609 5606 5605 5604 5603 5603 5602 5601 5601 5601 5601 5601 5601 5600 5600 5599 5599 5598 5599 5600
5645 5639 5635 5635 5641 5637 5634 5633 5630 5624 5617 5613 5609 5611 5610 5611 5611 5609 5607 5604 5602 5599 5596 5592 5588 5585 5583 5582 5581 5580 5579 5578 5578 5578 5579 5580 5580 5580 5579 5578 5578 5578 5578 5578
5628 5624 5623 5621 5622 5618 5614 5613 5612 5608 5601 5595 5593 5593 5593 5590 5588 5587 5584 5582 5580 5578 5575 5572 5568 5565 5562 5560 5558 5557 5555 5554 5553 5553 5553 5554 5555 5556 5557 5557 5556 5556 5556 5557
5610 5606 5605 5603 5604 5602 5597 5595 5595 5591 5586 5578 5575 5573 5575 5570 5566 5564 5563 5561 5559 5557 5555 5552 5549 5545 5542 5539 5536 5533 5531 5529 5528 5528 5528 5528 5529 5530 5530 5531 5531 5531 5532 5533
5594 5588 5586 5583 5586 5580 5573 5576 5577 5573 5567 5559 5553 5550 5549 5544 5543 5542 5540 5538 5536 5535 5533 5530 5527 5524 5520 5516 5512 5510 5507 5505 5503 5502 5502 5501 5502 5502 5503 5503 5504 5504 5505 5506
5577 5572 5565 5559 5562 5554 5550 5560 5557 5551 5547 5541 5531 5528 5520 5518 5518 5518 5517 5515 5513 5511 5509 5507 5504 5501 5498 5493 5487 5483 5481 5479 5477 5475 5474 5473 5473 5473 5473 5473 5474 5474 5476 5478
5558 5553 5543 5535 5532 5523 5533 5534 5532 5525 5521 5518 5509 5502 5497 5494 5494 5495 5492 5489 5488 5486 5483 5481 5478 5476 5473 5469 5462 5457 5453 5451 5448 5446 5444 5441 5440 5440 5440 5440 5442 5443 5445 5447
5539 5530 5520 5512 5504 5496 5502 5506 5504 5498 5492 5491 5485 5479 5474 5470 5471 5473 5469 5464 5463 5460 5457 5454 5450 5448 5446 5442 5435 5431 5427 5422 5417 5414 5411 5409 5406 5405 5404 5404 5407 5409 5411 5415
5518 5509 5500 5491 5483 5477 5482 5481 5478 5473 5468 5467 5463 5458 5454 5450 5450 5455 5450 5444 5440 5436 5433 5429 5425 5422 5419 5414 5408 5403 5399 5394 5388 5383 5380 5377 5373 5370 5369 5368 5369 5371 5373 5378
5492 5486 5480 5473 5465 5460 5464 5461 5457 5455 5452 5447 5443 5440 5437 5433 5432 5432 5428 5423 5419 5414 5410 5405 5401 5397 5392 5385 5379 5375 5371 5364 5357 5353 5349 5345 5341 5336 5334 5332 5333 5333 5334 5338
5472 5468 5464 5457 5452 5452 5448 5444 5441 5438 5435 5432 5428 5425 5420 5417 5414 5410 5407 5403 5398 5393 5387 5381 5376 5373 5367 5359 5351 5345 5341 5334 5326 5320 5315 5310 5306 5303 5300 5298 5297 5297 5297 5299
5456 5454 5446 5442 5442 5440 5434 5429 5427 5423 5419 5417 5413 5410 5405 5400 5397 5393 5389 5385 5380 5374 5367 5361 5355 5350 5345 5335 5325 5316 5311 5301 5293 5287 5281 5275 5270 5266 5263 5261 5261 5261 5261 5263
5442 5438 5429 5426 5429 5427 5421 5418 5414 5409 5405 5402 5398 5394 5389 5384 5381 5377 5373 5367 5361 5355 5348 5342 5335 5329 5322 5313 5302 5290 5280 5271 5263 5256 5249 5242 5235 5231 5227 5225 5224 5224 5226 5227
5430 5422 5416 5413 5415 5411 5410 5406 5400 5395 5391 5386 5382 5378 5373 5369 5365 5361 5356 5350 5344 5337 5331 5323 5316 5307 5299 5290 5280 5268 5255 5245 5237 5229 5221 5213 5206 5200 5197 5194 5192 5191 5193 5193
5417 5408 5402 5400 5401 5393 5393 5391 5386 5381 5376 5371 5366 5361 5357 5353 5349 5345 5340 5334 5328 5321 5314 5306 5298 5288 5279 5270 5260 5248 5237 5227 5217 5207 5198 5189 5182 5177 5173 5170 5168 5166 5165 5166